[[{"header":{"parameterUnit":"m.s-1","parameterCategory":2,"la1":30.2991,"la2":30.254,"lo1":-89.0895,"lo2":-89.0444,"dy":0.0017,"dx":0.0017,"nx":28,"ny":28,"refTime":"2025-07-24T21:00:00:Z","depth":"0","parameterNumber":2,"parameterNumberName":"U-component_of_CURRENTS"},"data":[0,0,0,0,0,0,0,0,0,0,0,0,0,0,0,0,0,0,0,0,0,0,0,0,0,0,0,0,0,0,0,0,0,0,0,0,0,0,0,0,0,0,0,0,0,0,0,0,0,0,0,0,0,0,0,0,0,0,0.337,0.3371,0,0.3424,0.3424,0.3425,0.3414,0.3413,0.3413,0.3412,0.3421,0.3421,0.3422,0,0,0,0,0,0,0,0,0,0,0,0,0,0.3266,0.3267,0.337,0.3371,0.3372,0.3424,0.3424,0.3425,0.3414,0.3413,0.3413,0.3412,0.342,0.3421,0.3422,0,0,0,0,0,0,0,0,0,0,0,0,0,0.3311,0.3268,0.337,0.3376,0.3377,0.3424,0.3424,0.3425,0.3414,0.3413,0.3412,0.3411,0.342,0.3421,0.3422,0.345,0,0,0.3426,0.3427,0,0,0,0,0,0,0,0,0.3309,0.3315,0.3374,0.3375,0.3377,0.3414,0.3391,0.3432,0.3415,0.3397,0.3412,0.3411,0.3417,0.3419,0.3427,0.3451,0.3451,0.3426,0.3427,0.3428,0.3428,0,0,0,0,0,0,0,0.3305,0.3312,0.3388,0.3375,0.3377,0.3378,0.3383,0.3398,0.3408,0.3398,0.3398,0.341,0.3417,0.3426,0.3427,0.3451,0.3426,0.3427,0.3428,0.3429,0.3532,0.3534,0,0,0,0,0,0,0.3307,0.331,0.3386,0.339,0.3343,0.3381,0.3386,0.34,0.3409,0.3411,0.3411,0.3409,0.3424,0.3425,0.3427,0.3484,0.3428,0.3429,0.343,0.353,0.3532,0.3534,0,0,0,0,0,0,0.3304,0.3313,0.3384,0.3353,0.3363,0.3384,0.34,0.3402,0.3414,0.342,0.342,0.3421,0.3423,0.3425,0.3455,0.3483,0.3429,0.3431,0.3527,0.353,0.3533,0.3583,0,0,0,0,0,0,0.3301,0.3312,0.3323,0.3354,0.3365,0.3423,0.3401,0.3404,0.3424,0.3423,0.3429,0.3428,0.3423,0.3454,0.3457,0.3484,0.3432,0.3525,0.3529,0.3532,0.3579,0.3587,0.3594,0,0,0,0,0,0.3297,0.3319,0.3324,0.3333,0.338,0.3424,0.343,0.3439,0.3426,0.3443,0.3448,0.3428,0.3479,0.3457,0.346,0.3488,0.3523,0.3528,0.3532,0.3575,0.3585,0.3594,0,0,0,0,0,0,0.3279,0.3321,0.3327,0.336,0.3394,0.3424,0.3442,0.3446,0.3464,0.3459,0.3453,0.3455,0.3495,0.3489,0.3464,0.3531,0.3499,0.3504,0.3531,0.354,0.3548,0.3546,0.3433,0,0,0,0,0,0.3282,0.3309,0.3349,0.3377,0.3396,0.3419,0.3437,0.3446,0.3467,0.3473,0.3477,0.3489,0.3517,0.3525,0.3545,0.3578,0.3599,0.3601,0.3608,0.3615,0.3618,0.3682,0.3695,0.3549,0.3549,0.3549,0,0,0.3281,0.3311,0.3324,0.3375,0.3399,0.3433,0.3427,0.3463,0.3487,0.3473,0.3503,0.3519,0.3535,0.3576,0.3593,0.3572,0.3672,0.362,0.3626,0.3625,0.3688,0.3702,0.3715,0.3552,0.3551,0.3551,0,0,0.3295,0.3322,0.3347,0.338,0.3427,0.3449,0.3461,0.3497,0.3511,0.3548,0.355,0.3584,0.3611,0.3634,0.3648,0.3713,0.3716,0.372,0.3751,0.3813,0.3826,0.3837,0.3897,0.3913,0.3717,0.3718,0.3718,0,0.3291,0.3327,0.3363,0.3397,0.3423,0.3456,0.3486,0.3516,0.3555,0.3578,0.3563,0.3636,0.3641,0.3706,0.3725,0.3729,0.3766,0.371,0.3823,0.3834,0.3845,0.3903,0.392,0.3721,0.372,0.372,0.372,0,0.3322,0.3352,0.3373,0.3425,0.3461,0.3495,0.3543,0.3579,0.3596,0.3624,0.3691,0.3711,0.3753,0.3765,0.376,0.3843,0.3847,0.383,0.3795,0.3862,0.392,0.3937,0.3725,0.3724,0.3723,0.3722,0,0,0.3304,0.3378,0.3383,0.3407,0.3475,0.3507,0.3565,0.3629,0.3672,0.3712,0.3773,0.3819,0.3835,0.3852,0.3863,0.3907,0.4009,0.3898,0.3899,0.395,0.4158,0.4158,0.4176,0.4015,0.4018,0.402,0.4174,0,0.3313,0.3369,0.3406,0.3457,0.349,0.3544,0.3596,0.366,0.3713,0.3784,0.3832,0.3893,0.3869,0.3899,0.3943,0.4007,0.4053,0.3969,0.4091,0.4095,0.4081,0.4195,0.4091,0.4219,0.419,0.4193,0.4195,0,0.3321,0.3361,0.3408,0.3476,0.3495,0.3531,0.3623,0.3676,0.379,0.3834,0.3911,0.3957,0.4053,0.4008,0.4148,0.4101,0.413,0.4161,0.4167,0.4158,0.4126,0.4146,0.425,0.4165,0.422,0.4218,0.4216,0,0.3289,0.3356,0.339,0.3415,0.3502,0.3534,0.3583,0.3687,0.378,0.3877,0.3985,0.4053,0.4164,0.4193,0.4274,0.4221,0.4427,0.4358,0.4384,0.4384,0.4314,0.4303,0.4341,0.444,0.444,0.4439,0.4439,0,0.3283,0.331,0.3375,0.3398,0.3457,0.3511,0.3604,0.3664,0.3811,0.3938,0.4016,0.4156,0.4223,0.4354,0.4338,0.4451,0.4489,0.4423,0.4437,0.433,0.432,0.4254,0.4201,0.4445,0.4444,0.4443,0.4442,0,0.3261,0.3293,0.3347,0.3424,0.3447,0.3494,0.3648,0.3731,0.3865,0.4046,0.4101,0.4314,0.446,0.4526,0.4618,0.4595,0.4528,0.465,0.4524,0.452,0.4415,0.4368,0.4247,0.4103,0.4693,0.4694,0.4695,0,0.3262,0.3284,0.3367,0.3406,0.3443,0.3527,0.3601,0.3736,0.3838,0.4137,0.4229,0.4469,0.4601,0.4784,0.4754,0.4763,0.4592,0.4678,0.4535,0.4432,0.4391,0.4173,0.4042,0.447,0.4469,0.4469,0.4468,0,0.3285,0.331,0.3363,0.3429,0.3495,0.3574,0.3675,0.3771,0.3943,0.4114,0.432,0.4461,0.4694,0.4691,0.4767,0.4741,0.4472,0.4662,0.4589,0.4263,0.3994,0.3854,0.4347,0.4461,0.4461,0.4462,0.4462,0.4463,0.3317,0.3347,0.3403,0.3458,0.3524,0.3564,0.3594,0.3717,0.3856,0.4035,0.4249,0.4387,0.4577,0.4669,0.4622,0.4534,0.4429,0.441,0.4381,0.4182,0.3975,0.4462,0.4563,0.4565,0.4566,0.4567,0.4568,0,0.3342,0.3362,0.3423,0.346,0.3487,0.3528,0.3602,0.3599,0.367,0.3875,0.4016,0.4197,0.4289,0.4376,0.4422,0.4287,0.4023,0.4181,0.3849,0.3743,0.4239,0.4164,0.4141,0.4141,0.4142,0.4142,0.4142,0.4142,0.3363,0.3389,0.3391,0.3392,0.3408,0.3362,0.3359,0.3363,0.3438,0.3529,0.3614,0.3762,0.4096,0.4319,0.4242,0.4126,0.3766,0.3636,0.3554,0.3944,0.3961,0.3977,0.3893,0.3815,0.3814,0.2894,0.2887,0.2882]},{"header":{"parameterUnit":"m.s-1","parameterCategory":2,"la1":30.2991,"la2":30.254,"lo1":-89.0895,"lo2":-89.0444,"dy":0.0017,"dx":0.0017,"nx":28,"ny":28,"refTime":"2025-07-24T21:00:00:Z","depth":"0","parameterNumber":3,"parameterNumberName":"V-component_of_CURRENTS"},"data":[0,0,0,0,0,0,0,0,0,0,0,0,0,0,0,0,0,0,0,0,0,0,0,0,0,0,0,0,0,0,0,0,0,0,0,0,0,0,0,0,0,0,0,0,0,0,0,0,0,0,0,0,0,0,0,0,0,0,0.0273,0.0272,0,0.0209,0.0208,0.0207,0.0151,0.0151,0.015,0.015,0.0016,0.0013,0.001,0,0,0,0,0,0,0,0,0,0,0,0,0,0.0272,0.0273,0.0273,0.0272,0.0272,0.0209,0.0208,0.0206,0.0151,0.0151,0.015,0.015,0.0017,0.0014,0.001,0,0,0,0,0,0,0,0,0,0,0,0,0,0.0245,0.0273,0.0273,0.0239,0.0235,0.0209,0.0207,0.0206,0.0151,0.0151,0.015,0.0149,0.0019,0.0014,0.0009,-0.0009,0,0,-0.0005,-0.0007,0,0,0,0,0,0,0,0,0.0246,0.0244,0.0244,0.0241,0.0237,0.0189,0.0158,0.0132,0.0151,0.018,0.015,0.0149,0.007,0.0061,0.0047,-0.0015,-0.0021,-0.0006,-0.0009,-0.0011,-0.0012,0,0,0,0,0,0,0,0.0248,0.0246,0.0245,0.0244,0.0239,0.02,0.0196,0.0153,0.0126,0.0178,0.0174,0.0171,0.0067,0.0052,0.0044,-0.0023,-0.0006,-0.001,-0.0013,-0.0015,-0.011,-0.011,0,0,0,0,0,0,0.0266,0.0249,0.0247,0.0243,0.0243,0.0201,0.0197,0.0203,0.0128,0.0117,0.0172,0.0169,0.0061,0.0049,0.0039,0.0026,-0.0011,-0.0015,-0.0018,-0.0111,-0.011,-0.011,0,0,0,0,0,0,0.0267,0.0267,0.025,0.0246,0.0241,0.0203,0.021,0.0202,0.019,0.0125,0.0112,0.0169,0.006,0.0045,0.0009,0.002,-0.0017,-0.0022,-0.0111,-0.0111,-0.011,-0.0007,0,0,0,0,0,0,0.0267,0.0268,0.0275,0.0248,0.0242,0.0246,0.0211,0.0202,0.019,0.0186,0.0117,0.0104,0.0058,0.0017,0.0005,0.0013,-0.0025,-0.0111,-0.0111,-0.011,-0.0011,-0.0003,0.0003,0,0,0,0,0,0.0268,0.029,0.0276,0.0275,0.0255,0.0247,0.0241,0.0209,0.0191,0.0194,0.0147,0.0107,0.0012,0.0014,-0.0001,0.0006,-0.0112,-0.0111,-0.011,-0.0014,-0.0005,0.0003,0,0,0,0,0,0,0.0294,0.0286,0.027,0.0288,0.0272,0.0239,0.0239,0.0217,0.0183,0.0177,0.0112,0.0096,0.0067,0.0022,0.0026,-0.0021,-0.0057,-0.0059,0.0021,0.0029,0.0036,0.0062,-0.0029,0,0,0,0,0,0.0304,0.0317,0.0298,0.031,0.0307,0.0273,0.0264,0.0246,0.0215,0.0199,0.0154,0.0101,0.0058,0.0034,-0.0011,-0.0035,-0.0075,-0.0041,-0.0034,-0.0027,-0.0017,-0.007,-0.0066,-0.0107,-0.0107,-0.0107,0,0,0.0316,0.0314,0.032,0.0316,0.0299,0.0311,0.0266,0.0265,0.027,0.0189,0.018,0.0125,0.0057,0.0032,0.0015,-0.0003,-0.0034,-0.0026,-0.002,-0.0013,-0.0069,-0.0065,-0.0061,-0.0107,-0.0107,-0.0107,0,0,0.0356,0.0347,0.0373,0.0369,0.0359,0.034,0.0345,0.0319,0.0303,0.0285,0.0229,0.0186,0.0122,0.008,0.0048,0.0066,0.0005,0.0048,0.0105,0.0054,0.0058,0.006,0.0029,0.0027,0.0052,0.0052,0.0053,0,0.0368,0.0402,0.0377,0.0403,0.041,0.0361,0.0392,0.037,0.0335,0.0328,0.0296,0.0207,0.0146,0.0116,0.0119,0.0084,0.005,0.0082,0.0065,0.0067,0.0067,0.0034,0.0032,0.0057,0.0057,0.0056,0.0056,0,0.043,0.0455,0.0471,0.0489,0.049,0.0509,0.0484,0.0478,0.0448,0.042,0.0385,0.0302,0.0253,0.022,0.0172,0.0149,0.0124,0.0082,0.005,0.0078,0.0041,0.0037,0.0065,0.0063,0.0061,0.006,0,0,0.0467,0.0509,0.0514,0.0546,0.0542,0.0558,0.0565,0.0563,0.0582,0.0517,0.0531,0.0432,0.0384,0.0345,0.0275,0.0222,0.0193,0.0162,0.0157,0.0143,0.0095,0.0077,0.007,0.0148,0.0147,0.0147,0.0074,0,0.0522,0.06,0.0598,0.0666,0.0707,0.0677,0.0697,0.0685,0.0655,0.0655,0.0557,0.0533,0.0432,0.0414,0.0346,0.0237,0.0183,0.0218,0.0059,0.0055,0.0044,0.0064,0.0092,0.003,0.0069,0.0068,0.0067,0,0.0584,0.0633,0.0714,0.0779,0.0794,0.0819,0.0852,0.0865,0.0835,0.0813,0.0758,0.0685,0.0605,0.0514,0.034,0.0368,0.0243,0.0147,0.0141,0.0085,0.0027,0.0002,0.0019,-0.0198,0.0059,0.006,0.0061,0,0.0638,0.0715,0.0788,0.0808,0.0865,0.0894,0.0916,0.091,0.0964,0.0912,0.0955,0.0811,0.0788,0.0595,0.0391,0.0366,0.0204,0.0142,0.0007,0.0005,-0.0022,-0.0025,-0.0223,0.0015,0.0015,0.0015,0.0015,0,0.0708,0.0768,0.0823,0.0868,0.0971,0.0969,0.1072,0.1061,0.1104,0.1205,0.1049,0.1105,0.0809,0.0685,0.0452,0.0232,0.0247,0.0027,-0.0016,0.0016,0.0017,-0.0215,-0.0346,0.0013,0.0013,0.0014,0.0014,0,0.0768,0.0795,0.0898,0.0973,0.1004,0.1078,0.1211,0.1301,0.1301,0.1434,0.1436,0.1341,0.1165,0.0865,0.0567,0.0353,-0.002,0.0018,0.0085,0.0051,-0.0285,-0.0409,-0.0665,-0.0759,-0.0139,-0.014,-0.0141,0,0.0813,0.0869,0.0984,0.1067,0.1109,0.1228,0.1335,0.1387,0.1506,0.1606,0.1698,0.1568,0.1521,0.107,0.0616,0.0197,-0.0033,-0.0033,-0.0094,-0.0292,-0.0464,-0.0562,-0.063,-0.0085,-0.0085,-0.0085,-0.0086,0,0.0916,0.0946,0.1039,0.1198,0.1324,0.1485,0.1635,0.1763,0.1862,0.1979,0.21,0.2065,0.1644,0.1216,0.0623,0.0336,-0.0184,-0.005,-0.0281,-0.0456,-0.0551,-0.0663,-0.004,-0.0087,-0.0087,-0.0087,-0.0087,-0.0087,0.0999,0.1084,0.1202,0.1357,0.1513,0.1712,0.1858,0.2043,0.2249,0.2433,0.2395,0.2385,0.1779,0.0966,0.054,-0.0194,-0.0223,-0.0409,-0.0546,-0.0628,-0.0722,-0.0091,-0.0175,-0.0175,-0.0175,-0.0176,-0.0176,0,0.1103,0.12,0.1358,0.1548,0.1737,0.1791,0.2051,0.2209,0.246,0.262,0.271,0.2406,0.1678,0.0937,-0.006,-0.0582,-0.0774,-0.0871,-0.1013,-0.106,-0.0515,-0.0515,-0.0644,-0.0644,-0.0644,-0.0643,-0.0643,-0.0643,0.1171,0.1322,0.1397,0.1701,0.1845,0.2089,0.2237,0.2463,0.2617,0.2803,0.28,0.2745,0.2183,0.0401,-0.0762,-0.1028,-0.1403,-0.1516,-0.1698,-0.1338,-0.1305,-0.1274,-0.1305,-0.1597,-0.1599,-0.2157,-0.2163,-0.2168]}],[{"header":{"parameterUnit":"m.s-1","parameterCategory":2,"la1":30.2991,"la2":30.254,"lo1":-89.0895,"lo2":-89.0444,"dy":0.0017,"dx":0.0017,"nx":28,"ny":28,"refTime":"2025-07-24T21:00:00:Z","depth":"2","parameterNumber":2,"parameterNumberName":"U-component_of_CURRENTS"},"data":[0,0,0,0,0,0,0,0,0,0,0,0,0,0,0,0,0,0,0,0,0,0,0,0,0,0,0,0,0,0,0,0,0,0,0,0,0,0,0,0,0,0,0,0,0,0,0,0,0,0,0,0,0,0,0,0,0,0,0.3147,0.3147,0,0.3202,0.3202,0.3203,0.3207,0.3206,0.3206,0.3206,0.3227,0.3228,0.3229,0,0,0,0,0,0,0,0,0,0,0,0,0,0.3051,0.3052,0.3147,0.3148,0.3149,0.3202,0.3202,0.3203,0.3207,0.3206,0.3206,0.3206,0.3227,0.3228,0.3229,0,0,0,0,0,0,0,0,0,0,0,0,0,0.3095,0.3053,0.3146,0.3159,0.3161,0.3202,0.3203,0.3203,0.3207,0.3206,0.3206,0.3205,0.3227,0.3228,0.3229,0.3248,0,0,0.3234,0.3234,0,0,0,0,0,0,0,0,0.3093,0.3098,0.3156,0.3158,0.3161,0.32,0.3177,0.3217,0.3207,0.3186,0.3206,0.3205,0.3218,0.322,0.3227,0.3249,0.3249,0.3234,0.3234,0.3235,0.3235,0,0,0,0,0,0,0,0.3089,0.3096,0.3165,0.3157,0.316,0.3165,0.317,0.3185,0.3201,0.3188,0.3189,0.3201,0.3218,0.3226,0.3228,0.325,0.3234,0.3235,0.3236,0.3236,0.334,0.3342,0,0,0,0,0,0,0.309,0.3093,0.3164,0.3167,0.3128,0.3167,0.3173,0.3185,0.3201,0.3205,0.3201,0.3201,0.3224,0.3226,0.3228,0.3293,0.3235,0.3236,0.3237,0.3338,0.334,0.3343,0,0,0,0,0,0,0.3087,0.3095,0.3161,0.3134,0.3143,0.317,0.3183,0.3187,0.3205,0.3212,0.3214,0.3217,0.3223,0.3226,0.3261,0.3292,0.3237,0.3238,0.3336,0.3339,0.3341,0.3395,0,0,0,0,0,0,0.3084,0.3094,0.3106,0.3134,0.3145,0.3198,0.3184,0.3188,0.3214,0.3214,0.3227,0.3228,0.3223,0.3259,0.3262,0.3293,0.3239,0.3333,0.3337,0.3341,0.3391,0.3399,0.3407,0,0,0,0,0,0.3081,0.3099,0.3106,0.3115,0.3159,0.32,0.3206,0.322,0.3215,0.3232,0.3244,0.3228,0.3284,0.3262,0.3265,0.3297,0.3331,0.3336,0.334,0.3387,0.3397,0.3406,0,0,0,0,0,0,0.3063,0.3102,0.3111,0.314,0.3174,0.3202,0.3222,0.323,0.3253,0.3253,0.3251,0.3254,0.3299,0.3293,0.3268,0.334,0.3306,0.3312,0.3341,0.3351,0.3359,0.3358,0.324,0,0,0,0,0,0.3067,0.309,0.3129,0.3154,0.3173,0.32,0.3218,0.3231,0.3255,0.3264,0.3274,0.329,0.3319,0.333,0.3351,0.3386,0.3402,0.3411,0.3419,0.3426,0.3429,0.3488,0.3502,0.3357,0.3357,0.3357,0,0,0.3065,0.3092,0.3105,0.3152,0.3178,0.3212,0.3209,0.3247,0.3274,0.3264,0.3302,0.3321,0.3337,0.3381,0.34,0.3379,0.348,0.3431,0.3437,0.3436,0.3495,0.3509,0.3521,0.336,0.3359,0.3359,0,0,0.3075,0.3103,0.3126,0.3158,0.3207,0.3229,0.3243,0.3282,0.3301,0.3343,0.3349,0.3387,0.3418,0.3442,0.3456,0.3521,0.3524,0.3531,0.3566,0.3624,0.3636,0.3647,0.37,0.3715,0.353,0.353,0.353,0,0.3074,0.3106,0.314,0.3173,0.3201,0.3238,0.3268,0.3301,0.3345,0.3371,0.3362,0.3441,0.3448,0.3513,0.3535,0.3539,0.3572,0.3524,0.3634,0.3645,0.3655,0.3706,0.3722,0.3533,0.3533,0.3533,0.3533,0,0.3098,0.3129,0.3149,0.3201,0.3237,0.3274,0.3323,0.3365,0.339,0.3421,0.3493,0.3516,0.3562,0.3576,0.3572,0.3655,0.3657,0.364,0.3605,0.3672,0.3723,0.3738,0.3538,0.3537,0.3536,0.3535,0,0,0.3077,0.3149,0.3156,0.3183,0.3254,0.3285,0.3348,0.3415,0.3462,0.351,0.3574,0.3624,0.3644,0.3663,0.3676,0.3718,0.3817,0.3711,0.3712,0.3757,0.3956,0.3933,0.3948,0.3825,0.3827,0.3829,0.3967,0,0.3085,0.3139,0.3176,0.3231,0.3265,0.3324,0.3377,0.3445,0.3505,0.3579,0.363,0.3694,0.3677,0.371,0.3756,0.3813,0.3859,0.3782,0.389,0.3893,0.3859,0.3965,0.3657,0.3751,0.3982,0.3984,0.3986,0,0.309,0.3129,0.3176,0.3249,0.327,0.3309,0.3408,0.3463,0.358,0.3628,0.371,0.3758,0.3853,0.3815,0.3948,0.3905,0.3934,0.3962,0.3968,0.3935,0.3899,0.372,0.377,0.4012,0.401,0.4008,0.4006,0,0.3053,0.3126,0.316,0.3186,0.3277,0.3314,0.3368,0.3477,0.3565,0.3672,0.3769,0.3848,0.3949,0.3985,0.4062,0.4016,0.4203,0.4142,0.4146,0.4145,0.3896,0.3869,0.4222,0.4221,0.4221,0.4221,0.422,0,0.3043,0.3072,0.3146,0.3167,0.3227,0.3291,0.3379,0.345,0.3597,0.37,0.3798,0.3911,0.4004,0.4124,0.412,0.4213,0.4259,0.4182,0.4191,0.3909,0.3882,0.4107,0.4091,0.4226,0.4225,0.4224,0.4223,0,0.3003,0.3045,0.3096,0.3182,0.3212,0.3258,0.3409,0.3484,0.3624,0.3774,0.3828,0.4034,0.4169,0.4259,0.4355,0.4331,0.4372,0.4379,0.405,0.4018,0.4252,0.4238,0.4393,0.4394,0.4395,0.4395,0.4395,0,0.2992,0.3013,0.31,0.3138,0.3179,0.3264,0.3329,0.3474,0.3568,0.3825,0.3899,0.4125,0.4228,0.4416,0.4396,0.4423,0.4443,0.4149,0.3992,0.4283,0.4276,0.4261,0.4247,0.3684,0.3678,0.3674,0.367,0,0.298,0.3008,0.3048,0.3124,0.3187,0.3258,0.336,0.3443,0.3605,0.374,0.3912,0.4027,0.4247,0.416,0.4252,0.42,0.4114,0.4062,0.4469,0.3699,0.3628,0.3617,0.3623,0.363,0.3634,0.3637,0.3639,0.3641,0.2981,0.2997,0.3048,0.3111,0.3179,0.3219,0.3227,0.3337,0.3442,0.3571,0.3763,0.3824,0.3924,0.3915,0.3806,0.3734,0.4,0.3794,0.3801,0.3815,0.3719,0.3654,0.3643,0.3647,0.365,0.3653,0.3656,0,0.2968,0.2993,0.3042,0.308,0.308,0.3155,0.3223,0.3182,0.3206,0.3362,0.346,0.3258,0.3272,0.3346,0.3198,0.3225,0.3116,0.3073,0.2884,0.2933,0.2973,0.2824,0.2516,0.2512,0.2507,0.2503,0,0,0.2973,0.2968,0.2968,0.2946,0.2978,0.2942,0.2935,0.2887,0.2942,0.2884,0.2894,0.3177,0.3318,0.2878,0.2839,0.2647,0.275,0.2548,0.3485,0.3317,0.335,0.3441,0.3277,0,0,0,0,0]},{"header":{"parameterUnit":"m.s-1","parameterCategory":2,"la1":30.2991,"la2":30.254,"lo1":-89.0895,"lo2":-89.0444,"dy":0.0017,"dx":0.0017,"nx":28,"ny":28,"refTime":"2025-07-24T21:00:00:Z","depth":"2","parameterNumber":3,"parameterNumberName":"V-component_of_CURRENTS"},"data":[0,0,0,0,0,0,0,0,0,0,0,0,0,0,0,0,0,0,0,0,0,0,0,0,0,0,0,0,0,0,0,0,0,0,0,0,0,0,0,0,0,0,0,0,0,0,0,0,0,0,0,0,0,0,0,0,0,0,0.0166,0.0166,0,0.0107,0.0106,0.0105,0.0054,0.0053,0.0053,0.0053,-0.0073,-0.0076,-0.0079,0,0,0,0,0,0,0,0,0,0,0,0,0,0.0162,0.0163,0.0166,0.0166,0.0165,0.0107,0.0106,0.0105,0.0054,0.0053,0.0053,0.0053,-0.0072,-0.0076,-0.0079,0,0,0,0,0,0,0,0,0,0,0,0,0,0.0137,0.0163,0.0167,0.0135,0.0131,0.0107,0.0106,0.0105,0.0054,0.0053,0.0053,0.0052,-0.0071,-0.0076,-0.008,-0.0097,0,0,-0.0094,-0.0096,0,0,0,0,0,0,0,0,0.0139,0.0137,0.014,0.0137,0.0133,0.0089,0.0058,0.0035,0.0054,0.0081,0.0053,0.0052,-0.0023,-0.0032,-0.0044,-0.0103,-0.0109,-0.0094,-0.0097,-0.0099,-0.01,0,0,0,0,0,0,0,0.0141,0.0139,0.014,0.0139,0.0135,0.0098,0.0095,0.0053,0.0029,0.0078,0.0075,0.0073,-0.0026,-0.004,-0.0048,-0.0111,-0.0094,-0.0098,-0.0101,-0.0103,-0.0192,-0.0192,0,0,0,0,0,0,0.0158,0.0141,0.0142,0.0139,0.0137,0.0099,0.0095,0.0102,0.0031,0.0021,0.0073,0.007,-0.0032,-0.0042,-0.0052,-0.0062,-0.0099,-0.0103,-0.0106,-0.0192,-0.0192,-0.0192,0,0,0,0,0,0,0.0158,0.0159,0.0145,0.014,0.0136,0.0101,0.0108,0.0101,0.0091,0.0028,0.0016,0.0071,-0.0032,-0.0046,-0.0079,-0.0068,-0.0105,-0.0109,-0.0193,-0.0192,-0.0192,-0.009,0,0,0,0,0,0,0.0158,0.0159,0.0167,0.0142,0.0137,0.0143,0.0109,0.01,0.0091,0.0087,0.0023,0.001,-0.0034,-0.0072,-0.0084,-0.0075,-0.0113,-0.0193,-0.0193,-0.0192,-0.0094,-0.0087,-0.008,0,0,0,0,0,0.0158,0.0181,0.0168,0.0168,0.015,0.0144,0.0138,0.0108,0.0092,0.0095,0.0051,0.0012,-0.0077,-0.0075,-0.0089,-0.0081,-0.0194,-0.0193,-0.0192,-0.0097,-0.0088,-0.008,0,0,0,0,0,0,0.0184,0.0178,0.0163,0.0182,0.0167,0.0136,0.0137,0.0117,0.0085,0.008,0.0018,0.0003,-0.0024,-0.0066,-0.0063,-0.0106,-0.0142,-0.0144,-0.0066,-0.0057,-0.005,-0.0026,-0.0117,0,0,0,0,0,0.0194,0.0207,0.019,0.0203,0.0201,0.0169,0.0161,0.0145,0.0116,0.0102,0.0059,0.0009,-0.0032,-0.0054,-0.0097,-0.0118,-0.0159,-0.0124,-0.0116,-0.011,-0.01,-0.0153,-0.015,-0.0189,-0.0189,-0.0189,0,0,0.0205,0.0204,0.021,0.0209,0.0193,0.0205,0.0163,0.0163,0.0169,0.0092,0.0085,0.0033,-0.0032,-0.0055,-0.0071,-0.0088,-0.0119,-0.0109,-0.0102,-0.0096,-0.0152,-0.0148,-0.0145,-0.0189,-0.0189,-0.0189,0,0,0.0244,0.0237,0.0263,0.026,0.0251,0.0234,0.024,0.0217,0.0202,0.0187,0.0133,0.0094,0.0033,-0.0007,-0.0037,-0.0018,-0.0079,-0.0035,0.0021,-0.003,-0.0027,-0.0025,-0.006,-0.0062,-0.0031,-0.0031,-0.003,0,0.0256,0.029,0.0267,0.0293,0.0301,0.0255,0.0286,0.0266,0.0234,0.0228,0.0198,0.0114,0.0057,0.0029,0.0033,-0.0,-0.0036,-0.0002,-0.0019,-0.0018,-0.0017,-0.0055,-0.0058,-0.0026,-0.0026,-0.0027,-0.0027,0,0.0316,0.0341,0.0357,0.0376,0.0379,0.0398,0.0375,0.0372,0.0344,0.0318,0.0285,0.0207,0.0161,0.0131,0.0085,0.0064,0.0037,-0.0002,-0.0035,-0.0007,-0.0049,-0.0054,-0.0019,-0.002,-0.0022,-0.0023,0,0,0.035,0.0392,0.0398,0.0428,0.0429,0.0443,0.0454,0.0453,0.047,0.0412,0.0422,0.0333,0.0287,0.025,0.0184,0.0134,0.0103,0.0075,0.007,0.0051,0.0001,-0.0027,-0.0036,0.006,0.006,0.0059,-0.0024,0,0.0402,0.0477,0.0478,0.0544,0.0582,0.0557,0.0579,0.0568,0.054,0.0536,0.0446,0.0421,0.0333,0.0315,0.0252,0.0143,0.0092,0.013,-0.0033,-0.0038,-0.0058,-0.0042,-0.0014,-0.0088,-0.003,-0.0031,-0.0032,0,0.046,0.0507,0.0584,0.0647,0.0661,0.0687,0.0719,0.0732,0.0702,0.068,0.0629,0.056,0.0485,0.0404,0.0236,0.0266,0.0146,0.0052,0.0046,-0.0019,-0.0076,-0.0111,-0.01,-0.0041,-0.004,-0.004,-0.0039,0,0.0506,0.0582,0.065,0.067,0.0726,0.0755,0.0778,0.0773,0.0817,0.0769,0.0796,0.0671,0.0639,0.0466,0.0273,0.0254,0.0086,0.0034,-0.0104,-0.0108,-0.0135,-0.014,-0.0088,-0.0088,-0.0087,-0.0087,-0.0087,0,0.0567,0.0623,0.068,0.0721,0.0815,0.0821,0.0907,0.0904,0.0936,0.0996,0.0878,0.09,0.0653,0.053,0.0322,0.0104,0.0121,-0.0088,-0.0132,-0.0099,-0.0099,-0.0105,-0.0105,-0.009,-0.009,-0.0089,-0.0088,0,0.0609,0.0643,0.0734,0.0809,0.0842,0.0906,0.102,0.109,0.1092,0.117,0.117,0.1085,0.0914,0.0663,0.0388,0.0196,-0.0033,-0.012,-0.0056,-0.0092,-0.0205,-0.02,-0.0278,-0.028,-0.0281,-0.0283,-0.0284,0,0.0641,0.0692,0.0801,0.0873,0.0913,0.1016,0.1105,0.1156,0.1246,0.1287,0.1346,0.122,0.1149,0.0753,0.0373,0.0013,-0.0035,-0.0195,-0.0238,-0.019,-0.0225,-0.0218,-0.0211,-0.0231,-0.0232,-0.0232,-0.0233,0,0.0707,0.0738,0.0813,0.0961,0.1067,0.1201,0.1327,0.1431,0.1493,0.1554,0.1609,0.1554,0.1191,0.0827,0.0336,0.0092,-0.014,-0.0215,-0.0184,-0.0185,-0.0153,-0.0185,-0.0178,-0.0236,-0.0236,-0.0236,-0.0236,-0.0235,0.0754,0.0818,0.092,0.1061,0.1201,0.1371,0.149,0.1626,0.1768,0.1869,0.1803,0.1732,0.1321,0.0705,0.0267,-0.0177,-0.0158,-0.0316,-0.0312,-0.0308,-0.0286,-0.0257,-0.0356,-0.0356,-0.0356,-0.0356,-0.0356,0,0.0812,0.0894,0.1025,0.1198,0.1351,0.1418,0.164,0.175,0.1917,0.1996,0.2022,0.1628,0.1228,0.0768,0.0099,-0.0304,-0.0326,-0.0418,-0.0366,-0.0359,-0.0354,-0.0332,-0.0416,-0.0417,-0.0418,-0.0419,0,0,0.0851,0.0964,0.1028,0.1281,0.1421,0.1645,0.1773,0.1926,0.2038,0.2082,0.2053,0.1977,0.1396,0.0904,0.0346,-0.0038,-0.0097,-0.0103,-0.0012,0.0122,0.0133,-0.0254,-0.0208,0,0,0,0,0]}],[{"header":{"parameterUnit":"m.s-1","parameterCategory":2,"la1":30.2991,"la2":30.254,"lo1":-89.0895,"lo2":-89.0444,"dy":0.0017,"dx":0.0017,"nx":28,"ny":28,"refTime":"2025-07-24T21:00:00:Z","depth":"4","parameterNumber":2,"parameterNumberName":"U-component_of_CURRENTS"},"data":[0,0,0,0,0,0,0,0,0,0,0,0,0,0,0,0,0,0,0,0,0,0,0,0,0,0,0,0,0,0,0,0,0,0,0,0,0,0,0,0,0,0,0,0,0,0,0,0,0,0,0,0,0,0,0,0,0,0,0.2064,0.2066,0,0.216,0.2161,0.2162,0.2237,0.2238,0.2239,0.224,0.2346,0.2348,0.235,0,0,0,0,0,0,0,0,0,0,0,0,0,0.1949,0.195,0.2064,0.2066,0.2067,0.216,0.2161,0.2162,0.2237,0.2238,0.2239,0.224,0.2346,0.2348,0.235,0,0,0,0,0,0,0,0,0,0,0,0,0,0.2015,0.1951,0.2064,0.2117,0.2123,0.216,0.2161,0.2163,0.2237,0.2238,0.224,0.2241,0.2345,0.2348,0.2351,0.234,0,0,0.236,0.2361,0,0,0,0,0,0,0,0,0.2011,0.2019,0.2108,0.2114,0.212,0.219,0.216,0.2224,0.2236,0.2191,0.224,0.2242,0.2296,0.2303,0.2314,0.2345,0.235,0.236,0.2362,0.2363,0.2364,0,0,0,0,0,0,0,0.2006,0.2015,0.21,0.2109,0.2117,0.2138,0.2148,0.2172,0.2233,0.2195,0.2201,0.2215,0.2299,0.2311,0.2317,0.2352,0.236,0.2362,0.2364,0.2365,0.2524,0.2526,0,0,0,0,0,0,0.1998,0.2011,0.2097,0.2103,0.2071,0.2139,0.2151,0.2164,0.2232,0.2245,0.2214,0.2219,0.2305,0.2314,0.2321,0.2441,0.2363,0.2366,0.2367,0.2521,0.2524,0.2527,0,0,0,0,0,0,0.1995,0.2004,0.2093,0.2061,0.2074,0.2139,0.2154,0.2166,0.2224,0.2247,0.2259,0.2266,0.2307,0.2317,0.2389,0.2441,0.2367,0.237,0.2518,0.2522,0.2525,0.2598,0,0,0,0,0,0,0.1991,0.2003,0.203,0.206,0.2076,0.2144,0.2154,0.2167,0.2228,0.2236,0.2295,0.2303,0.2309,0.2385,0.2392,0.2443,0.2372,0.2515,0.252,0.2524,0.2593,0.2604,0.2613,0,0,0,0,0,0.1986,0.201,0.2031,0.2043,0.2105,0.2146,0.2157,0.2205,0.223,0.2262,0.2309,0.2304,0.242,0.2389,0.2397,0.245,0.2513,0.2519,0.2524,0.2588,0.2602,0.2613,0,0,0,0,0,0,0.1976,0.2021,0.2044,0.2083,0.2127,0.2161,0.2201,0.2229,0.229,0.2313,0.2331,0.2344,0.2427,0.2429,0.2395,0.2511,0.2467,0.2474,0.2513,0.2526,0.2536,0.2531,0.2374,0,0,0,0,0,0.1985,0.2018,0.206,0.2097,0.2123,0.217,0.2202,0.2236,0.2283,0.2313,0.2355,0.2402,0.2447,0.248,0.2515,0.2574,0.258,0.2616,0.2626,0.2635,0.2638,0.2693,0.2708,0.2545,0.2545,0.2545,0,0,0.1991,0.2022,0.2043,0.2099,0.214,0.2182,0.2194,0.2256,0.2304,0.2313,0.2406,0.2442,0.2472,0.2544,0.2582,0.2558,0.2688,0.2642,0.2649,0.2647,0.27,0.2716,0.273,0.2548,0.2548,0.2547,0,0,0.2005,0.2052,0.2081,0.2123,0.2192,0.2221,0.2248,0.2311,0.2359,0.2437,0.2463,0.2531,0.2599,0.2632,0.2654,0.2741,0.2741,0.2764,0.2814,0.2869,0.2882,0.2894,0.2931,0.2945,0.2769,0.2769,0.2769,0,0.2017,0.2056,0.2099,0.2139,0.2181,0.2243,0.2286,0.2339,0.2422,0.2468,0.2481,0.2611,0.2637,0.2721,0.2757,0.2765,0.2792,0.2762,0.2881,0.2893,0.2904,0.2939,0.2954,0.2774,0.2773,0.2773,0.2772,0,0.2038,0.2091,0.2117,0.2187,0.2237,0.229,0.2359,0.2431,0.2497,0.2545,0.2661,0.2707,0.2782,0.2808,0.281,0.291,0.2905,0.2886,0.2844,0.2925,0.2956,0.2971,0.2779,0.2778,0.2777,0.2776,0,0,0.2009,0.2111,0.2126,0.2171,0.2271,0.231,0.2405,0.2497,0.257,0.2663,0.2754,0.2842,0.2882,0.2909,0.2935,0.2984,0.3086,0.2978,0.2979,0.3005,0.3211,0.302,0.3016,0.3098,0.3101,0.3103,0.3204,0,0.202,0.2092,0.2146,0.2234,0.228,0.2371,0.2448,0.2546,0.2637,0.2742,0.2819,0.2915,0.2917,0.2972,0.3025,0.3077,0.3127,0.306,0.3136,0.3138,0.2951,0.3027,0.3112,0.3215,0.3218,0.322,0.3222,0,0.2017,0.2071,0.2149,0.2263,0.2294,0.236,0.2503,0.2584,0.2733,0.2805,0.2919,0.2986,0.31,0.3077,0.3208,0.3174,0.3202,0.3225,0.3229,0.3031,0.2973,0.3118,0.3247,0.3245,0.3244,0.3242,0.324,0,0.1958,0.2073,0.2137,0.2177,0.231,0.2379,0.2466,0.2612,0.2699,0.2864,0.2951,0.3075,0.3174,0.323,0.3301,0.3273,0.3424,0.3381,0.3233,0.322,0.3329,0.3315,0.346,0.346,0.346,0.346,0.346,0,0.1927,0.1985,0.2123,0.2157,0.2248,0.236,0.2476,0.258,0.2743,0.2836,0.299,0.3077,0.3225,0.3329,0.3345,0.3338,0.3466,0.3251,0.3236,0.3358,0.3347,0.3339,0.3324,0.3464,0.3463,0.3462,0.3461,0,0.1842,0.1935,0.2013,0.2164,0.2221,0.2288,0.2474,0.2548,0.2728,0.2859,0.2924,0.3133,0.3251,0.3368,0.3475,0.339,0.3397,0.336,0.3503,0.3494,0.3143,0.3131,0.3186,0.318,0.3175,0.3171,0.3167,0,0.1798,0.1831,0.1994,0.2044,0.2119,0.2244,0.232,0.2512,0.2589,0.2853,0.2893,0.3107,0.3211,0.3229,0.3343,0.3372,0.3334,0.3314,0.3198,0.3136,0.3118,0.3113,0.3108,0.3159,0.3158,0.3157,0.3156,0,0.1707,0.1781,0.1838,0.194,0.2031,0.2119,0.225,0.2299,0.2506,0.27,0.2801,0.2884,0.3021,0.3101,0.317,0.3171,0.3306,0.3261,0.327,0.3161,0.3105,0.309,0.3091,0.3138,0.3141,0.3142,0.3143,0,0.1637,0.1648,0.1734,0.1808,0.1909,0.1958,0.2052,0.2149,0.2259,0.2547,0.2566,0.2787,0.2979,0.2998,0.3044,0.3054,0.2994,0.288,0.2907,0.2927,0.2795,0.2684,0.2582,0,0,0,0,0,0.1553,0.1548,0.1601,0.166,0.175,0.182,0.1981,0.2081,0.2289,0.2294,0.2429,0.2532,0.2633,0.2751,0.2709,0.2921,0.3,0.2857,0.288,0.3043,0.3063,0.293,0,0,0,0,0,0,0.1489,0.1529,0.1542,0.1517,0.1538,0.162,0.1721,0.1869,0.1891,0.2121,0.2197,0.2368,0.2512,0.2628,0.2655,0.2688,0.2648,0.2995,0.2988,0.3031,0.305,0.3066,0.2936,0,0,0,0,0]},{"header":{"parameterUnit":"m.s-1","parameterCategory":2,"la1":30.2991,"la2":30.254,"lo1":-89.0895,"lo2":-89.0444,"dy":0.0017,"dx":0.0017,"nx":28,"ny":28,"refTime":"2025-07-24T21:00:00:Z","depth":"4","parameterNumber":3,"parameterNumberName":"V-component_of_CURRENTS"},"data":[0,0,0,0,0,0,0,0,0,0,0,0,0,0,0,0,0,0,0,0,0,0,0,0,0,0,0,0,0,0,0,0,0,0,0,0,0,0,0,0,0,0,0,0,0,0,0,0,0,0,0,0,0,0,0,0,0,0,0.0094,0.0093,0,0.0054,0.0054,0.0053,0.0015,0.0015,0.0015,0.0014,-0.0082,-0.0085,-0.0087,0,0,0,0,0,0,0,0,0,0,0,0,0,0.0082,0.0082,0.0094,0.0093,0.0093,0.0054,0.0054,0.0053,0.0015,0.0015,0.0015,0.0014,-0.0082,-0.0084,-0.0087,0,0,0,0,0,0,0,0,0,0,0,0,0,0.0068,0.0083,0.0094,0.0071,0.0069,0.0054,0.0054,0.0053,0.0015,0.0015,0.0014,0.0014,-0.0081,-0.0084,-0.0087,-0.0099,0,0,-0.0098,-0.0099,0,0,0,0,0,0,0,0,0.0069,0.0068,0.0075,0.0072,0.007,0.0041,0.0014,-0.0,0.0016,0.0034,0.0014,0.0014,-0.0045,-0.0051,-0.0059,-0.0103,-0.0107,-0.0098,-0.01,-0.0102,-0.0103,0,0,0,0,0,0,0,0.007,0.0069,0.0076,0.0074,0.0071,0.0044,0.0042,0.0011,-0.0005,0.0032,0.003,0.0028,-0.0047,-0.0056,-0.0062,-0.0109,-0.0098,-0.0101,-0.0103,-0.0104,-0.0172,-0.0172,0,0,0,0,0,0,0.0082,0.0071,0.0078,0.0075,0.007,0.0045,0.0042,0.0049,-0.0003,-0.0011,0.0029,0.0027,-0.005,-0.0058,-0.0066,-0.007,-0.0102,-0.0105,-0.0107,-0.0172,-0.0172,-0.0171,0,0,0,0,0,0,0.0082,0.0083,0.0079,0.0073,0.007,0.0046,0.0054,0.0049,0.0042,-0.0005,-0.0014,0.0028,-0.0051,-0.0061,-0.0085,-0.0075,-0.0106,-0.0109,-0.0172,-0.0172,-0.0172,-0.0087,0,0,0,0,0,0,0.0082,0.0083,0.009,0.0074,0.0071,0.008,0.0054,0.0048,0.0042,0.0039,-0.0009,-0.0018,-0.0052,-0.008,-0.0089,-0.008,-0.0112,-0.0173,-0.0172,-0.0172,-0.009,-0.0084,-0.0078,0,0,0,0,0,0.0081,0.0101,0.0091,0.0092,0.0083,0.0081,0.0077,0.0056,0.0043,0.0047,0.0014,-0.0017,-0.0084,-0.0082,-0.0093,-0.0085,-0.0173,-0.0172,-0.0172,-0.0093,-0.0085,-0.0079,0,0,0,0,0,0,0.01,0.0098,0.0088,0.0105,0.0096,0.0076,0.0078,0.0063,0.004,0.0036,-0.0012,-0.0023,-0.0042,-0.0076,-0.0073,-0.0104,-0.0134,-0.0136,-0.0071,-0.0064,-0.0058,-0.0038,-0.0115,0,0,0,0,0,0.0108,0.0121,0.011,0.0123,0.0122,0.01,0.0095,0.0084,0.0063,0.0053,0.0021,-0.0017,-0.0048,-0.0064,-0.0097,-0.0111,-0.015,-0.0115,-0.0109,-0.0104,-0.0096,-0.0145,-0.0142,-0.017,-0.017,-0.017,0,0,0.0118,0.0119,0.0125,0.0127,0.0117,0.0129,0.0096,0.0098,0.0106,0.0045,0.0043,0.0002,-0.0048,-0.0063,-0.0075,-0.0089,-0.0116,-0.0103,-0.0098,-0.0093,-0.0144,-0.0141,-0.0139,-0.0169,-0.0169,-0.0169,0,0,0.0148,0.0146,0.0167,0.0167,0.0163,0.0152,0.0157,0.0142,0.0132,0.0124,0.0081,0.0052,0.0007,-0.0023,-0.0046,-0.0029,-0.0084,-0.0044,0.0004,-0.0043,-0.0041,-0.004,-0.008,-0.0083,-0.004,-0.0039,-0.0039,0,0.0158,0.0186,0.0171,0.0193,0.0201,0.0169,0.0194,0.0182,0.016,0.0156,0.0134,0.0071,0.0027,0.0007,0.0012,-0.0015,-0.005,-0.0015,-0.0034,-0.0034,-0.0034,-0.0076,-0.0081,-0.0035,-0.0036,-0.0036,-0.0037,0,0.0203,0.0226,0.024,0.0258,0.0264,0.0281,0.0268,0.0268,0.0249,0.023,0.0207,0.0148,0.0112,0.009,0.0056,0.0037,0.0009,-0.002,-0.0047,-0.0026,-0.0072,-0.0078,-0.0029,-0.0031,-0.0032,-0.0033,0,0,0.0226,0.0265,0.027,0.0294,0.0303,0.0315,0.0331,0.0335,0.0347,0.0307,0.0313,0.0252,0.0215,0.0186,0.0135,0.0092,0.0059,0.0043,0.0039,0.0012,-0.0042,-0.0061,-0.0071,0.0025,0.0024,0.0024,-0.0072,0,0.0264,0.0323,0.0331,0.0385,0.0414,0.0404,0.0427,0.0424,0.0404,0.0399,0.0333,0.0314,0.0253,0.0237,0.0186,0.0091,0.0046,0.0088,-0.0067,-0.0071,-0.0084,-0.0077,0.0022,-0.0077,-0.0078,-0.0079,-0.008,0,0.0304,0.0341,0.0404,0.0458,0.0471,0.0498,0.0527,0.0543,0.0524,0.0507,0.0469,0.0417,0.0357,0.0299,0.0154,0.0183,0.0083,0.0003,-0.0004,-0.0054,-0.0102,-0.0107,-0.0092,-0.0091,-0.009,-0.0089,-0.0088,0,0.0325,0.0391,0.0445,0.0464,0.0517,0.0546,0.0571,0.0574,0.0598,0.0573,0.0577,0.0493,0.0455,0.0324,0.0163,0.0158,-0.0005,-0.0036,-0.015,-0.0152,-0.0143,-0.0144,-0.0141,-0.014,-0.014,-0.014,-0.014,0,0.036,0.0405,0.0463,0.0494,0.0567,0.0588,0.0651,0.0658,0.0677,0.0703,0.0635,0.0625,0.0458,0.0347,0.0191,0.0006,0.0013,-0.0138,-0.0178,-0.0105,-0.0101,-0.0147,-0.0147,-0.0144,-0.0143,-0.0142,-0.0141,0,0.0369,0.0409,0.0476,0.0549,0.058,0.0627,0.0714,0.0755,0.0764,0.0795,0.0795,0.0721,0.0577,0.04,0.0183,0.005,-0.013,-0.0201,-0.0099,-0.0133,-0.0252,-0.0246,-0.0328,-0.0329,-0.0331,-0.0332,-0.0333,0,0.0378,0.0414,0.051,0.0558,0.0595,0.0675,0.0738,0.0789,0.0832,0.0845,0.0859,0.0757,0.0676,0.0379,0.0172,-0.0114,-0.0166,-0.0258,-0.0264,-0.0241,-0.0271,-0.0264,-0.0256,-0.0335,-0.0335,-0.0335,-0.0336,0,0.039,0.0422,0.0477,0.0576,0.0652,0.0746,0.0832,0.0879,0.0931,0.0942,0.0917,0.0775,0.0614,0.0384,0.0164,-0.005,-0.0195,-0.0272,-0.0271,-0.0278,-0.025,-0.0277,-0.0269,-0.034,-0.0339,-0.0339,-0.0339,0,0.0391,0.0427,0.05,0.059,0.0688,0.0788,0.084,0.0904,0.0959,0.0979,0.0961,0.0798,0.071,0.0414,0.0205,0.0003,-0.0058,-0.0134,-0.0142,-0.0139,-0.0064,0.0,-0.0043,0,0,0,0,0,0.0389,0.0435,0.0512,0.0617,0.0713,0.0782,0.0893,0.094,0.0997,0.0991,0.0985,0.0836,0.0549,0.0433,0.0229,0.015,-0.0115,-0.0101,-0.021,-0.0364,-0.0359,-0.0306,0,0,0,0,0,0,0.0387,0.0454,0.0503,0.0623,0.0702,0.082,0.0901,0.0943,0.0949,0.0971,0.0834,0.0768,0.0499,0.067,0.0222,0.016,0.0056,-0.0229,-0.0234,-0.0367,-0.0362,-0.0358,-0.0302,0,0,0,0,0]}]]